Year,Month,Day,Hour,Minute,Value (Times are PST for temperature in C)
2015,07,29,00,00,16.10
2015,07,29,00,01,16.10
2015,07,29,00,02,16.10
2015,07,29,00,03,16.10
2015,07,29,00,04,16.10
2015,07,29,00,05,16.10
2015,07,29,00,06,16.10
2015,07,29,00,07,16.10
2015,07,29,00,08,16.10
2015,07,29,00,09,16.10
2015,07,29,00,10,16.10
2015,07,29,00,11,16.10
2015,07,29,00,12,16.10
2015,07,29,00,13,16.10
2015,07,29,00,14,16.10
2015,07,29,00,15,16.10
2015,07,29,00,16,16.10
2015,07,29,00,17,16.10
2015,07,29,00,18,16.10
2015,07,29,00,19,16.10
2015,07,29,00,20,16.10
2015,07,29,00,21,16.00
2015,07,29,00,22,15.90
2015,07,29,00,23,15.90
2015,07,29,00,24,15.90
2015,07,29,00,25,15.90
2015,07,29,00,26,15.90
2015,07,29,00,27,16.00
2015,07,29,00,28,16.10
2015,07,29,00,29,16.10
2015,07,29,00,30,16.10
2015,07,29,00,31,16.10
2015,07,29,00,32,16.10
2015,07,29,00,33,16.10
2015,07,29,00,34,16.10
2015,07,29,00,35,16.10
2015,07,29,00,36,16.10
2015,07,29,00,37,16.00
2015,07,29,00,38,15.90
2015,07,29,00,39,15.90
2015,07,29,00,40,15.90
2015,07,29,00,41,15.80
2015,07,29,00,42,15.80
2015,07,29,00,43,15.80
2015,07,29,00,44,15.80
2015,07,29,00,45,15.80
2015,07,29,00,46,15.80
2015,07,29,00,47,15.80
2015,07,29,00,48,15.70
2015,07,29,00,49,15.70
2015,07,29,00,50,15.70
2015,07,29,00,51,15.70
2015,07,29,00,52,15.60
2015,07,29,00,53,15.60
2015,07,29,00,54,15.60
2015,07,29,00,55,15.60
2015,07,29,00,56,15.50
2015,07,29,00,57,15.50
2015,07,29,00,58,15.50
2015,07,29,00,59,15.50
2015,07,29,01,00,15.50
2015,07,29,01,01,15.50
2015,07,29,01,02,15.50
2015,07,29,01,03,15.50
2015,07,29,01,04,15.50
2015,07,29,01,05,15.60
2015,07,29,01,06,15.60
2015,07,29,01,07,15.60
2015,07,29,01,08,15.60
2015,07,29,01,09,15.60
2015,07,29,01,10,15.60
2015,07,29,01,11,15.60
2015,07,29,01,12,15.70
2015,07,29,01,13,15.70
2015,07,29,01,14,15.70
2015,07,29,01,15,15.70
2015,07,29,01,16,15.70
2015,07,29,01,17,15.70
2015,07,29,01,18,15.70
2015,07,29,01,19,15.80
2015,07,29,01,20,15.80
2015,07,29,01,21,15.80
2015,07,29,01,22,15.80
2015,07,29,01,23,15.80
2015,07,29,01,24,15.80
2015,07,29,01,25,15.80
2015,07,29,01,26,15.80
2015,07,29,01,27,15.80
2015,07,29,01,28,15.80
2015,07,29,01,29,15.80
2015,07,29,01,30,15.80
2015,07,29,01,31,15.80
2015,07,29,01,32,15.80
2015,07,29,01,33,15.80
2015,07,29,01,34,15.80
2015,07,29,01,35,15.80
2015,07,29,01,36,15.80
2015,07,29,01,37,15.80
2015,07,29,01,38,15.80
2015,07,29,01,39,15.80
2015,07,29,01,40,15.80
2015,07,29,01,41,15.80
2015,07,29,01,42,15.80
2015,07,29,01,43,15.70
2015,07,29,01,44,15.70
2015,07,29,01,45,15.60
2015,07,29,01,46,15.60
2015,07,29,01,47,15.60
2015,07,29,01,48,15.50
2015,07,29,01,49,15.50
2015,07,29,01,50,15.50
2015,07,29,01,51,15.40
2015,07,29,01,52,15.40
2015,07,29,01,53,15.30
2015,07,29,01,54,15.30
2015,07,29,01,55,15.30
2015,07,29,01,56,15.20
2015,07,29,01,57,15.20
2015,07,29,01,58,15.20
2015,07,29,01,59,15.10
2015,07,29,02,00,15.10
2015,07,29,02,01,15.00
2015,07,29,02,02,15.00
2015,07,29,02,03,15.00
2015,07,29,02,04,14.90
2015,07,29,02,05,14.90
2015,07,29,02,06,14.90
2015,07,29,02,07,14.80
2015,07,29,02,08,14.80
2015,07,29,02,09,14.80
2015,07,29,02,10,14.80
2015,07,29,02,11,14.70
2015,07,29,02,12,14.70
2015,07,29,02,13,14.70
2015,07,29,02,14,14.60
2015,07,29,02,15,14.60
2015,07,29,02,16,14.60
2015,07,29,02,17,14.50
2015,07,29,02,18,14.50
2015,07,29,02,19,14.50
2015,07,29,02,20,14.40
2015,07,29,02,21,14.40
2015,07,29,02,22,14.30
2015,07,29,02,23,14.30
2015,07,29,02,24,14.30
2015,07,29,02,25,14.20
2015,07,29,02,26,14.20
2015,07,29,02,27,14.20
2015,07,29,02,28,14.20
2015,07,29,02,29,14.20
2015,07,29,02,30,14.20
2015,07,29,02,31,14.20
2015,07,29,02,32,14.10
2015,07,29,02,33,14.10
2015,07,29,02,34,14.10
2015,07,29,02,35,14.10
2015,07,29,02,36,14.00
2015,07,29,02,37,14.00
2015,07,29,02,38,14.00
2015,07,29,02,39,14.00
2015,07,29,02,40,14.00
2015,07,29,02,41,14.00
2015,07,29,02,42,14.00
2015,07,29,02,43,14.00
2015,07,29,02,44,14.00
2015,07,29,02,45,14.00
2015,07,29,02,46,14.00
2015,07,29,02,47,13.90
2015,07,29,02,48,13.90
2015,07,29,02,49,13.90
2015,07,29,02,50,13.90
2015,07,29,02,51,13.90
2015,07,29,02,52,13.90
2015,07,29,02,53,14.00
2015,07,29,02,54,14.00
2015,07,29,02,55,14.00
2015,07,29,02,56,14.00
2015,07,29,02,57,14.00
2015,07,29,02,58,14.00
2015,07,29,02,59,14.00
2015,07,29,03,00,14.00
2015,07,29,03,01,14.00
2015,07,29,03,02,14.00
2015,07,29,03,03,14.00
2015,07,29,03,04,14.00
2015,07,29,03,05,14.00
2015,07,29,03,06,14.00
2015,07,29,03,07,13.90
2015,07,29,03,08,13.90
2015,07,29,03,09,13.90
2015,07,29,03,10,13.90
2015,07,29,03,11,13.90
2015,07,29,03,12,13.90
2015,07,29,03,13,13.90
2015,07,29,03,14,13.90
2015,07,29,03,15,13.90
2015,07,29,03,16,13.80
2015,07,29,03,17,13.80
2015,07,29,03,18,13.80
2015,07,29,03,19,13.80
2015,07,29,03,20,13.80
2015,07,29,03,21,13.70
2015,07,29,03,22,13.70
2015,07,29,03,23,13.70
2015,07,29,03,24,13.70
2015,07,29,03,25,13.70
2015,07,29,03,26,13.70
2015,07,29,03,27,13.70
2015,07,29,03,28,13.70
2015,07,29,03,29,13.70
2015,07,29,03,30,13.70
2015,07,29,03,31,13.70
2015,07,29,03,32,13.70
2015,07,29,03,33,13.70
2015,07,29,03,34,13.70
2015,07,29,03,35,13.70
2015,07,29,03,36,13.70
2015,07,29,03,37,13.60
2015,07,29,03,38,13.60
2015,07,29,03,39,13.60
2015,07,29,03,40,13.70
2015,07,29,03,41,13.70
2015,07,29,03,42,13.70
2015,07,29,03,43,13.60
2015,07,29,03,44,13.60
2015,07,29,03,45,13.60
2015,07,29,03,46,13.60
2015,07,29,03,47,13.60
2015,07,29,03,48,13.60
2015,07,29,03,49,13.60
2015,07,29,03,50,13.60
2015,07,29,03,51,13.50
2015,07,29,03,52,13.50
2015,07,29,03,53,13.50
2015,07,29,03,54,13.50
2015,07,29,03,55,13.50
2015,07,29,03,56,13.50
2015,07,29,03,57,13.50
2015,07,29,03,58,13.50
2015,07,29,03,59,13.50
2015,07,29,04,00,13.50
2015,07,29,04,01,13.50
2015,07,29,04,02,13.50
2015,07,29,04,03,13.50
2015,07,29,04,04,13.40
2015,07,29,04,05,13.40
2015,07,29,04,06,13.40
2015,07,29,04,07,13.40
2015,07,29,04,08,13.40
2015,07,29,04,09,13.40
2015,07,29,04,10,13.40
2015,07,29,04,11,13.40
2015,07,29,04,12,13.40
2015,07,29,04,13,13.40
2015,07,29,04,14,13.40
2015,07,29,04,15,13.40
2015,07,29,04,16,13.40
2015,07,29,04,17,13.40
2015,07,29,04,18,13.40
2015,07,29,04,19,13.40
2015,07,29,04,20,13.40
2015,07,29,04,21,13.40
2015,07,29,04,22,13.50
2015,07,29,04,23,13.50
2015,07,29,04,24,13.50
2015,07,29,04,25,13.60
2015,07,29,04,26,13.60
2015,07,29,04,27,13.70
2015,07,29,04,28,13.70
2015,07,29,04,29,13.70
2015,07,29,04,30,13.70
2015,07,29,04,31,13.70
2015,07,29,04,32,13.70
2015,07,29,04,33,13.70
2015,07,29,04,34,13.70
2015,07,29,04,35,13.70
2015,07,29,04,36,13.70
2015,07,29,04,37,13.70
2015,07,29,04,38,13.70
2015,07,29,04,39,13.70
2015,07,29,04,40,13.70
2015,07,29,04,41,13.70
2015,07,29,04,42,13.70
2015,07,29,04,43,13.70
2015,07,29,04,44,13.70
2015,07,29,04,45,13.70
2015,07,29,04,46,13.70
2015,07,29,04,47,13.70
2015,07,29,04,48,13.70
2015,07,29,04,49,13.80
2015,07,29,04,50,13.80
2015,07,29,04,51,13.80
2015,07,29,04,52,13.80
2015,07,29,04,53,13.80
2015,07,29,04,54,13.80
2015,07,29,04,55,13.80
2015,07,29,04,56,13.80
2015,07,29,04,57,13.80
2015,07,29,04,58,13.90
2015,07,29,04,59,13.90
2015,07,29,05,00,13.90
2015,07,29,05,01,13.90
2015,07,29,05,02,13.90
2015,07,29,05,03,13.90
2015,07,29,05,04,13.90
2015,07,29,05,05,13.90
2015,07,29,05,06,13.90
2015,07,29,05,07,13.90
2015,07,29,05,08,13.80
2015,07,29,05,09,13.80
2015,07,29,05,10,13.80
2015,07,29,05,11,13.80
2015,07,29,05,12,13.80
2015,07,29,05,13,13.80
2015,07,29,05,14,13.70
2015,07,29,05,15,13.70
2015,07,29,05,16,13.70
2015,07,29,05,17,13.70
2015,07,29,05,18,13.70
2015,07,29,05,19,13.70
2015,07,29,05,20,13.70
2015,07,29,05,21,13.70
2015,07,29,05,22,13.60
2015,07,29,05,23,13.60
2015,07,29,05,24,13.60
2015,07,29,05,25,13.60
2015,07,29,05,26,13.60
2015,07,29,05,27,13.60
2015,07,29,05,28,13.60
2015,07,29,05,29,13.60
2015,07,29,05,30,13.60
2015,07,29,05,31,13.60
2015,07,29,05,32,13.60
2015,07,29,05,33,13.60
2015,07,29,05,34,13.60
2015,07,29,05,35,13.60
2015,07,29,05,36,13.60
2015,07,29,05,37,13.60
2015,07,29,05,38,13.60
2015,07,29,05,39,13.50
2015,07,29,05,40,13.50
2015,07,29,05,41,13.50
2015,07,29,05,42,13.50
2015,07,29,05,43,13.50
2015,07,29,05,44,13.40
2015,07,29,05,45,13.40
2015,07,29,05,46,13.40
2015,07,29,05,47,13.40
2015,07,29,05,48,13.40
2015,07,29,05,49,13.30
2015,07,29,05,50,13.30
2015,07,29,05,51,13.30
2015,07,29,05,52,13.30
2015,07,29,05,53,13.30
2015,07,29,05,54,13.30
2015,07,29,05,55,13.30
2015,07,29,05,56,13.30
2015,07,29,05,57,13.30
2015,07,29,05,58,13.30
2015,07,29,05,59,13.30
2015,07,29,06,00,13.30
2015,07,29,06,01,13.30
2015,07,29,06,02,13.30
2015,07,29,06,03,13.30
2015,07,29,06,04,13.30
2015,07,29,06,05,13.30
2015,07,29,06,06,13.30
2015,07,29,06,07,13.30
2015,07,29,06,08,13.30
2015,07,29,06,09,13.30
2015,07,29,06,10,13.30
2015,07,29,06,11,13.30
2015,07,29,06,12,13.30
2015,07,29,06,13,13.30
2015,07,29,06,14,13.30
2015,07,29,06,15,13.30
2015,07,29,06,16,13.30
2015,07,29,06,17,13.30
2015,07,29,06,18,13.30
2015,07,29,06,19,13.30
2015,07,29,06,20,13.30
2015,07,29,06,21,13.30
2015,07,29,06,22,13.30
2015,07,29,06,23,13.30
2015,07,29,06,24,13.40
2015,07,29,06,25,13.40
2015,07,29,06,26,13.40
2015,07,29,06,27,13.40
2015,07,29,06,28,13.40
2015,07,29,06,29,13.50
2015,07,29,06,30,13.50
2015,07,29,06,31,13.50
2015,07,29,06,32,13.50
2015,07,29,06,33,13.50
2015,07,29,06,34,13.50
2015,07,29,06,35,13.60
2015,07,29,06,36,13.60
2015,07,29,06,37,13.60
2015,07,29,06,38,13.70
2015,07,29,06,39,13.70
2015,07,29,06,40,13.70
2015,07,29,06,41,13.80
2015,07,29,06,42,13.80
2015,07,29,06,43,13.90
2015,07,29,06,44,13.90
2015,07,29,06,45,14.00
2015,07,29,06,46,14.00
2015,07,29,06,47,14.10
2015,07,29,06,48,14.20
2015,07,29,06,49,14.20
2015,07,29,06,50,14.30
2015,07,29,06,51,14.30
2015,07,29,06,52,14.40
2015,07,29,06,53,14.50
2015,07,29,06,54,14.50
2015,07,29,06,55,14.60
2015,07,29,06,56,14.60
2015,07,29,06,57,14.70
2015,07,29,06,58,14.70
2015,07,29,06,59,14.80
2015,07,29,07,00,14.80
2015,07,29,07,01,14.80
2015,07,29,07,02,14.90
2015,07,29,07,03,15.00
2015,07,29,07,04,15.10
2015,07,29,07,05,15.10
2015,07,29,07,06,15.20
2015,07,29,07,07,15.20
2015,07,29,07,08,15.30
2015,07,29,07,09,15.40
2015,07,29,07,10,15.50
2015,07,29,07,11,15.50
2015,07,29,07,12,15.50
2015,07,29,07,13,15.50
2015,07,29,07,14,15.50
2015,07,29,07,15,15.50
2015,07,29,07,16,15.50
2015,07,29,07,17,15.50
2015,07,29,07,18,15.50
2015,07,29,07,19,15.50
2015,07,29,07,20,15.50
2015,07,29,07,21,15.50
2015,07,29,07,22,15.50
2015,07,29,07,23,15.50
2015,07,29,07,24,15.50
2015,07,29,07,25,15.60
2015,07,29,07,26,15.60
2015,07,29,07,27,15.60
2015,07,29,07,28,15.50
2015,07,29,07,29,15.50
2015,07,29,07,30,15.50
2015,07,29,07,31,15.50
2015,07,29,07,32,15.40
2015,07,29,07,33,15.40
2015,07,29,07,34,15.40
2015,07,29,07,35,15.40
2015,07,29,07,36,15.40
2015,07,29,07,37,15.40
2015,07,29,07,38,15.40
2015,07,29,07,39,15.40
2015,07,29,07,40,15.40
2015,07,29,07,41,15.40
2015,07,29,07,42,15.40
2015,07,29,07,43,15.40
2015,07,29,07,44,15.40
2015,07,29,07,45,15.40
2015,07,29,07,46,15.40
2015,07,29,07,47,15.30
2015,07,29,07,48,15.30
2015,07,29,07,49,15.30
2015,07,29,07,50,15.30
2015,07,29,07,51,15.40
2015,07,29,07,52,15.40
2015,07,29,07,53,15.50
2015,07,29,07,54,15.50
2015,07,29,07,55,15.50
2015,07,29,07,56,15.60
2015,07,29,07,57,15.60
2015,07,29,07,58,15.50
2015,07,29,07,59,15.50
2015,07,29,08,00,15.60
2015,07,29,08,01,15.60
2015,07,29,08,02,15.50
2015,07,29,08,03,15.50
2015,07,29,08,04,15.60
2015,07,29,08,05,15.60
2015,07,29,08,06,15.60
2015,07,29,08,07,15.70
2015,07,29,08,08,15.70
2015,07,29,08,09,15.80
2015,07,29,08,10,15.90
2015,07,29,08,11,16.00
2015,07,29,08,12,16.10
2015,07,29,08,13,16.10
2015,07,29,08,14,16.20
2015,07,29,08,15,16.20
2015,07,29,08,16,16.20
2015,07,29,08,17,16.30
2015,07,29,08,18,16.30
2015,07,29,08,19,16.30
2015,07,29,08,20,16.40
2015,07,29,08,21,16.40
2015,07,29,08,22,16.40
2015,07,29,08,23,16.40
2015,07,29,08,24,16.40
2015,07,29,08,25,16.40
2015,07,29,08,26,16.40
2015,07,29,08,27,16.60
2015,07,29,08,28,16.60
2015,07,29,08,29,16.60
2015,07,29,08,30,16.70
2015,07,29,08,31,16.70
2015,07,29,08,32,16.70
2015,07,29,08,33,16.70
2015,07,29,08,34,16.70
2015,07,29,08,35,16.80
2015,07,29,08,36,16.90
2015,07,29,08,37,17.00
2015,07,29,08,38,17.00
2015,07,29,08,39,17.10
2015,07,29,08,40,17.20
2015,07,29,08,41,17.20
2015,07,29,08,42,17.30
2015,07,29,08,43,17.30
2015,07,29,08,44,17.30
2015,07,29,08,45,17.30
2015,07,29,08,46,17.30
2015,07,29,08,47,17.30
2015,07,29,08,48,17.30
2015,07,29,08,49,17.30
2015,07,29,08,50,17.30
2015,07,29,08,51,17.30
2015,07,29,08,52,17.30
2015,07,29,08,53,17.30
2015,07,29,08,54,17.30
2015,07,29,08,55,17.30
2015,07,29,08,56,17.40
2015,07,29,08,57,17.40
2015,07,29,08,58,17.50
2015,07,29,08,59,17.70
2015,07,29,09,00,17.70
2015,07,29,09,01,17.80
2015,07,29,09,02,17.90
2015,07,29,09,03,17.90
2015,07,29,09,04,17.90
2015,07,29,09,05,17.90
2015,07,29,09,06,17.90
2015,07,29,09,07,17.90
2015,07,29,09,08,17.90
2015,07,29,09,09,17.90
2015,07,29,09,10,17.90
2015,07,29,09,11,17.90
2015,07,29,09,12,17.90
2015,07,29,09,13,17.90
2015,07,29,09,14,18.00
2015,07,29,09,15,18.10
2015,07,29,09,16,18.10
2015,07,29,09,17,18.00
2015,07,29,09,18,18.00
2015,07,29,09,19,18.10
2015,07,29,09,20,18.10
2015,07,29,09,21,18.20
2015,07,29,09,22,18.20
2015,07,29,09,23,18.20
2015,07,29,09,24,18.20
2015,07,29,09,25,18.20
2015,07,29,09,26,18.20
2015,07,29,09,27,18.20
2015,07,29,09,28,18.20
2015,07,29,09,29,18.20
2015,07,29,09,30,18.20
2015,07,29,09,31,18.20
2015,07,29,09,32,18.30
2015,07,29,09,33,18.30
2015,07,29,09,34,18.30
2015,07,29,09,35,18.30
2015,07,29,09,36,18.40
2015,07,29,09,37,18.40
2015,07,29,09,38,18.50
2015,07,29,09,39,18.60
2015,07,29,09,40,18.70
2015,07,29,09,41,18.80
2015,07,29,09,42,18.90
2015,07,29,09,43,18.90
2015,07,29,09,44,18.90
2015,07,29,09,45,19.00
2015,07,29,09,46,19.10
2015,07,29,09,47,19.10
2015,07,29,09,48,19.10
2015,07,29,09,49,19.10
2015,07,29,09,50,19.10
2015,07,29,09,51,19.20
2015,07,29,09,52,19.20
2015,07,29,09,53,19.20
2015,07,29,09,54,19.30
2015,07,29,09,55,19.30
2015,07,29,09,56,19.30
2015,07,29,09,57,19.40
2015,07,29,09,58,19.40
2015,07,29,09,59,19.30
2015,07,29,10,00,19.30
2015,07,29,10,01,19.20
2015,07,29,10,02,19.20
2015,07,29,10,03,19.20
2015,07,29,10,04,19.10
2015,07,29,10,05,19.10
2015,07,29,10,06,19.10
2015,07,29,10,07,19.10
2015,07,29,10,08,19.20
2015,07,29,10,09,19.20
2015,07,29,10,10,19.30
2015,07,29,10,11,19.40
2015,07,29,10,12,19.50
2015,07,29,10,13,19.60
2015,07,29,10,14,19.70
2015,07,29,10,15,19.90
2015,07,29,10,16,19.90
2015,07,29,10,17,20.10
2015,07,29,10,18,20.20
2015,07,29,10,19,20.20
2015,07,29,10,20,20.20
2015,07,29,10,21,20.10
2015,07,29,10,22,20.10
2015,07,29,10,23,20.10
2015,07,29,10,24,20.10
2015,07,29,10,25,20.10
2015,07,29,10,26,20.10
2015,07,29,10,27,20.20
2015,07,29,10,28,20.20
2015,07,29,10,29,20.20
2015,07,29,10,30,20.20
2015,07,29,10,31,20.20
2015,07,29,10,32,20.20
2015,07,29,10,33,20.20
2015,07,29,10,34,20.20
2015,07,29,10,35,20.20
2015,07,29,10,36,20.30
2015,07,29,10,37,20.30
2015,07,29,10,38,20.30
2015,07,29,10,39,20.30
2015,07,29,10,40,20.30
2015,07,29,10,41,20.40
2015,07,29,10,42,20.40
2015,07,29,10,43,20.40
2015,07,29,10,44,20.40
2015,07,29,10,45,20.40
2015,07,29,10,46,20.30
2015,07,29,10,47,20.20
2015,07,29,10,48,20.20
2015,07,29,10,49,20.20
2015,07,29,10,50,20.20
2015,07,29,10,51,20.10
2015,07,29,10,52,20.10
2015,07,29,10,53,20.10
2015,07,29,10,54,20.00
2015,07,29,10,55,19.90
2015,07,29,10,56,19.90
2015,07,29,10,57,19.80
2015,07,29,10,58,19.80
2015,07,29,10,59,19.90
2015,07,29,11,00,19.90
2015,07,29,11,01,20.00
2015,07,29,11,02,20.10
2015,07,29,11,03,20.10
2015,07,29,11,04,20.10
2015,07,29,11,05,20.20
2015,07,29,11,06,20.20
2015,07,29,11,07,20.20
2015,07,29,11,08,20.20
2015,07,29,11,09,20.10
2015,07,29,11,10,19.90
2015,07,29,11,11,19.80
2015,07,29,11,12,19.60
2015,07,29,11,13,19.50
2015,07,29,11,14,19.50
2015,07,29,11,15,19.50
2015,07,29,11,16,19.50
2015,07,29,11,17,19.60
2015,07,29,11,18,19.60
2015,07,29,11,19,19.60
2015,07,29,11,20,19.60
2015,07,29,11,21,19.60
2015,07,29,11,22,19.70
2015,07,29,11,23,19.60
2015,07,29,11,24,19.50
2015,07,29,11,25,19.40
2015,07,29,11,26,19.40
2015,07,29,11,27,19.40
2015,07,29,11,28,19.40
2015,07,29,11,29,19.30
2015,07,29,11,30,19.30
2015,07,29,11,31,19.30
2015,07,29,11,32,19.30
2015,07,29,11,33,19.30
2015,07,29,11,34,19.30
2015,07,29,11,35,19.30
2015,07,29,11,36,19.20
2015,07,29,11,37,19.20
2015,07,29,11,38,19.10
2015,07,29,11,39,18.90
2015,07,29,11,40,18.70
2015,07,29,11,41,18.60
2015,07,29,11,42,18.40
2015,07,29,11,43,18.30
2015,07,29,11,44,18.30
2015,07,29,11,45,18.30
2015,07,29,11,46,18.20
2015,07,29,11,47,18.20
2015,07,29,11,48,18.20
2015,07,29,11,49,18.30
2015,07,29,11,50,18.30
2015,07,29,11,51,18.20
2015,07,29,11,52,18.20
2015,07,29,11,53,18.30
2015,07,29,11,54,18.40
2015,07,29,11,55,18.50
2015,07,29,11,56,18.60
2015,07,29,11,57,18.60
2015,07,29,11,58,18.60
2015,07,29,11,59,18.70
2015,07,29,12,00,18.70
2015,07,29,12,01,18.70
2015,07,29,12,02,18.70
2015,07,29,12,03,18.80
2015,07,29,12,04,18.90
2015,07,29,12,05,19.00
2015,07,29,12,06,19.10
2015,07,29,12,07,19.10
2015,07,29,12,08,19.10
2015,07,29,12,09,19.10
2015,07,29,12,10,19.10
2015,07,29,12,11,19.10
2015,07,29,12,12,19.20
2015,07,29,12,13,19.30
2015,07,29,12,14,19.40
2015,07,29,12,15,19.60
2015,07,29,12,16,19.70
2015,07,29,12,17,19.70
2015,07,29,12,18,19.70
2015,07,29,12,19,19.90
2015,07,29,12,20,19.90
2015,07,29,12,21,19.90
2015,07,29,12,22,19.90
2015,07,29,12,23,19.90
2015,07,29,12,24,20.00
2015,07,29,12,25,20.10
2015,07,29,12,26,20.00
2015,07,29,12,27,19.90
2015,07,29,12,28,20.00
2015,07,29,12,29,20.10
2015,07,29,12,30,20.10
2015,07,29,12,31,20.10
2015,07,29,12,32,20.10
2015,07,29,12,33,20.10
2015,07,29,12,34,19.90
2015,07,29,12,35,19.90
2015,07,29,12,36,19.80
2015,07,29,12,37,19.80
2015,07,29,12,38,19.80
2015,07,29,12,39,19.80
2015,07,29,12,40,19.80
2015,07,29,12,41,19.90
2015,07,29,12,42,20.00
2015,07,29,12,43,20.10
2015,07,29,12,44,20.10
2015,07,29,12,45,20.20
2015,07,29,12,46,20.20
2015,07,29,12,47,20.20
2015,07,29,12,48,20.20
2015,07,29,12,49,20.30
2015,07,29,12,50,20.40
2015,07,29,12,51,20.40
2015,07,29,12,52,20.40
2015,07,29,12,53,20.40
2015,07,29,12,54,20.50
2015,07,29,12,55,20.60
2015,07,29,12,56,20.70
2015,07,29,12,57,20.80
2015,07,29,12,58,20.80
2015,07,29,12,59,21.00
2015,07,29,13,00,21.10
2015,07,29,13,01,21.10
2015,07,29,13,02,21.00
2015,07,29,13,03,21.00
2015,07,29,13,04,21.00
2015,07,29,13,05,21.10
2015,07,29,13,06,21.20
2015,07,29,13,07,21.30
2015,07,29,13,08,21.30
2015,07,29,13,09,21.30
2015,07,29,13,10,21.50
2015,07,29,13,11,21.60
2015,07,29,13,12,21.80
2015,07,29,13,13,21.80
2015,07,29,13,14,21.80
2015,07,29,13,15,21.80
2015,07,29,13,16,21.80
2015,07,29,13,17,21.80
2015,07,29,13,18,21.80
2015,07,29,13,19,21.80
2015,07,29,13,20,21.80
2015,07,29,13,21,21.80
2015,07,29,13,22,21.70
2015,07,29,13,23,21.70
2015,07,29,13,24,21.70
2015,07,29,13,25,21.80
2015,07,29,13,26,21.90
2015,07,29,13,27,21.90
2015,07,29,13,28,21.90
2015,07,29,13,29,21.90
2015,07,29,13,30,21.90
2015,07,29,13,31,21.90
2015,07,29,13,32,22.00
2015,07,29,13,33,22.00
2015,07,29,13,34,22.00
2015,07,29,13,35,22.00
2015,07,29,13,36,22.20
2015,07,29,13,37,22.20
2015,07,29,13,38,22.30
2015,07,29,13,39,22.40
2015,07,29,13,40,22.50
2015,07,29,13,41,22.50
2015,07,29,13,42,22.50
2015,07,29,13,43,22.50
2015,07,29,13,44,22.50
2015,07,29,13,45,22.60
2015,07,29,13,46,22.70
2015,07,29,13,47,22.80
2015,07,29,13,48,22.70
2015,07,29,13,49,22.70
2015,07,29,13,50,22.60
2015,07,29,13,51,22.60
2015,07,29,13,52,22.60
2015,07,29,13,53,22.70
2015,07,29,13,54,22.70
2015,07,29,13,55,22.70
2015,07,29,13,56,22.70
2015,07,29,13,57,22.60
2015,07,29,13,58,22.60
2015,07,29,13,59,22.50
2015,07,29,14,00,22.50
2015,07,29,14,01,22.40
2015,07,29,14,02,22.30
2015,07,29,14,03,22.30
2015,07,29,14,04,22.10
2015,07,29,14,05,22.00
2015,07,29,14,06,21.90
2015,07,29,14,07,21.90
2015,07,29,14,08,21.90
2015,07,29,14,09,21.90
2015,07,29,14,10,21.90
2015,07,29,14,11,21.90
2015,07,29,14,12,21.60
2015,07,29,14,13,21.60
2015,07,29,14,14,21.60
2015,07,29,14,15,21.70
2015,07,29,14,16,21.80
2015,07,29,14,17,22.00
2015,07,29,14,18,22.10
2015,07,29,14,19,22.10
2015,07,29,14,20,22.20
2015,07,29,14,21,22.10
2015,07,29,14,22,22.00
2015,07,29,14,23,21.90
2015,07,29,14,24,21.80
2015,07,29,14,25,21.70
2015,07,29,14,26,21.60
2015,07,29,14,27,21.40
2015,07,29,14,28,21.30
2015,07,29,14,29,21.30
2015,07,29,14,30,21.30
2015,07,29,14,31,21.30
2015,07,29,14,32,21.20
2015,07,29,14,33,21.30
2015,07,29,14,34,21.40
2015,07,29,14,35,21.50
2015,07,29,14,36,21.60
2015,07,29,14,37,21.60
2015,07,29,14,38,21.80
2015,07,29,14,39,22.00
2015,07,29,14,40,22.00
2015,07,29,14,41,22.10
2015,07,29,14,42,22.10
2015,07,29,14,43,22.00
2015,07,29,14,44,21.90
2015,07,29,14,45,21.90
2015,07,29,14,46,21.90
2015,07,29,14,47,21.90
2015,07,29,14,48,21.90
2015,07,29,14,49,21.90
2015,07,29,14,50,21.90
2015,07,29,14,51,21.90
2015,07,29,14,52,21.80
2015,07,29,14,53,21.90
2015,07,29,14,54,22.00
2015,07,29,14,55,22.10
2015,07,29,14,56,22.20
2015,07,29,14,57,22.30
2015,07,29,14,58,22.30
2015,07,29,14,59,22.30
2015,07,29,15,00,22.40
2015,07,29,15,01,22.40
2015,07,29,15,02,22.50
2015,07,29,15,03,22.60
2015,07,29,15,04,22.60
2015,07,29,15,05,22.60
2015,07,29,15,06,22.60
2015,07,29,15,07,22.60
2015,07,29,15,08,22.80
2015,07,29,15,09,23.00
2015,07,29,15,10,23.20
2015,07,29,15,11,23.30
2015,07,29,15,12,23.40
2015,07,29,15,13,23.40
2015,07,29,15,14,23.40
2015,07,29,15,15,23.40
2015,07,29,15,16,23.40
2015,07,29,15,17,23.40
2015,07,29,15,18,23.30
2015,07,29,15,19,23.30
2015,07,29,15,20,23.40
2015,07,29,15,21,23.60
2015,07,29,15,22,23.70
2015,07,29,15,23,23.70
2015,07,29,15,24,23.80
2015,07,29,15,25,24.00
2015,07,29,15,26,24.20
2015,07,29,15,27,24.40
2015,07,29,15,28,24.50
2015,07,29,15,29,24.50
2015,07,29,15,30,24.50
2015,07,29,15,31,24.50
2015,07,29,15,32,24.50
2015,07,29,15,33,24.50
2015,07,29,15,34,24.50
2015,07,29,15,35,24.50
2015,07,29,15,36,24.50
2015,07,29,15,37,24.40
2015,07,29,15,38,24.30
2015,07,29,15,39,24.40
2015,07,29,15,40,24.40
2015,07,29,15,41,24.40
2015,07,29,15,42,24.50
2015,07,29,15,43,24.60
2015,07,29,15,44,24.70
2015,07,29,15,45,24.80
2015,07,29,15,46,24.90
2015,07,29,15,47,24.90
2015,07,29,15,48,24.80
2015,07,29,15,49,24.70
2015,07,29,15,50,24.70
2015,07,29,15,51,24.70
2015,07,29,15,52,24.60
2015,07,29,15,53,24.50
2015,07,29,15,54,24.50
2015,07,29,15,55,24.40
2015,07,29,15,56,24.30
2015,07,29,15,57,24.30
2015,07,29,15,58,24.40
2015,07,29,15,59,24.40
2015,07,29,16,00,24.40
2015,07,29,16,01,24.40
2015,07,29,16,02,24.30
2015,07,29,16,03,24.30
2015,07,29,16,04,24.30
2015,07,29,16,05,24.10
2015,07,29,16,06,24.00
2015,07,29,16,07,23.80
2015,07,29,16,08,23.70
2015,07,29,16,09,23.70
2015,07,29,16,10,23.60
2015,07,29,16,11,23.50
2015,07,29,16,12,23.40
2015,07,29,16,13,23.40
2015,07,29,16,14,23.40
2015,07,29,16,15,23.50
2015,07,29,16,16,23.60
2015,07,29,16,17,23.70
2015,07,29,16,18,23.80
2015,07,29,16,19,23.80
2015,07,29,16,20,23.80
2015,07,29,16,21,23.80
2015,07,29,16,22,23.80
2015,07,29,16,23,23.90
2015,07,29,16,24,24.00
2015,07,29,16,25,24.10
2015,07,29,16,26,24.20
2015,07,29,16,27,24.20
2015,07,29,16,28,24.20
2015,07,29,16,29,24.30
2015,07,29,16,30,24.40
2015,07,29,16,31,24.40
2015,07,29,16,32,24.50
2015,07,29,16,33,24.50
2015,07,29,16,34,24.60
2015,07,29,16,35,24.50
2015,07,29,16,36,24.40
2015,07,29,16,37,24.40
2015,07,29,16,38,24.30
2015,07,29,16,39,24.10
2015,07,29,16,40,24.10
2015,07,29,16,41,24.00
2015,07,29,16,42,23.90
2015,07,29,16,43,23.80
2015,07,29,16,44,23.90
2015,07,29,16,45,23.90
2015,07,29,16,46,23.90
2015,07,29,16,47,23.90
2015,07,29,16,48,23.90
2015,07,29,16,49,23.90
2015,07,29,16,50,23.80
2015,07,29,16,51,23.70
2015,07,29,16,52,23.70
2015,07,29,16,53,23.80
2015,07,29,16,54,23.80
2015,07,29,16,55,23.80
2015,07,29,16,56,23.90
2015,07,29,16,57,23.90
2015,07,29,16,58,23.90
2015,07,29,16,59,23.90
2015,07,29,17,00,23.90
2015,07,29,17,01,23.90
2015,07,29,17,02,23.90
2015,07,29,17,03,24.00
2015,07,29,17,04,24.10
2015,07,29,17,05,24.10
2015,07,29,17,06,24.10
2015,07,29,17,07,24.20
2015,07,29,17,08,24.20
2015,07,29,17,09,24.20
2015,07,29,17,10,24.10
2015,07,29,17,11,24.10
2015,07,29,17,12,24.10
2015,07,29,17,13,24.20
2015,07,29,17,14,24.30
2015,07,29,17,15,24.40
2015,07,29,17,16,24.50
2015,07,29,17,17,24.50
2015,07,29,17,18,24.60
2015,07,29,17,19,24.50